Flag for Mexico Weather past 2 weeks in Ojinaga, Chihuahua, Mexico

55 °F


Feels Like: 54 °F
Forecast: 61 / 83 °F
Wind: 7 mph from North

Location: Marfa Municipal Airport

Current Time: Oct 9, 2015 at 10:09:32 PM

Latest Report: Oct 9, 2015 at 9:35 PM

Visibility: 10 mi

Pressure: 30.38 "Hg (27.65 "Hg at 788m altitude)

Humidity: 94%

Dew point: 54 °F

Location of OjinagaLocation

Historic Weather in Ojinaga — Graph


Ojinaga temperature yesterday

Maximum temperature yesterday: 64 °F (at 3:35 PM)
Minimum temperature yesterday: 50 °F (at 6:55 AM)
Average temperature yesterday: 57 °F

Past Weeks' High & Low Weather Summary

High88 °F (Oct 1, 2:55 PM)100% (Oct 5, 5:55 AM)30.37 "Hg (Oct 5, 5:55 AM)
Low48 °F (Sep 27, 4:35 AM)22% (Oct 1, 2:55 PM)29.86 "Hg (Oct 3, 4:35 PM)
Average64 °F68%30.16 "Hg
* Reported Sep 24 8:15 PM — Oct 9 8:55 PM, Ojinaga, Weather by CustomWeather, © 2015

Note: Actual official high and low records may vary slightly from our data, if they occured in-between our weather recording intervals... More about our weather records


Ojinaga weather history for previous 24 hours

Time TempWeatherWind HumidityBarometerVisibility
8:55 PM
Fri, Oct 9
55 °FClear.6 mph94%30.37 "Hg10 mi
8:35 PM55 °FClear.6 mph94%30.37 "Hg10 mi
8:15 PM57 °FClear.5 mph88%30.35 "Hg10 mi
7:55 PM61 °FClear.7 mph83%30.34 "Hg10 mi
7:35 PM61 °FClear.10 mph83%30.33 "Hg10 mi
7:15 PM61 °FSunny.10 mph83%30.33 "Hg10 mi
6:55 PM61 °FSunny.9 mph83%30.32 "Hg10 mi
6:35 PM63 °FPassing clouds.8 mph77%30.32 "Hg10 mi
6:15 PM64 °FBroken clouds.13 mph73%30.32 "Hg10 mi
5:55 PM64 °FOvercast.12 mph73%30.32 "Hg10 mi
5:35 PM64 °FOvercast.8 mph73%30.32 "Hg10 mi
5:15 PM64 °FOvercast.13 mph73%30.32 "Hg10 mi
4:55 PM64 °FPartly sunny.14 mph73%30.32 "Hg10 mi
4:35 PM66 °FOvercast.12 mph68%30.32 "Hg10 mi
4:15 PM66 °FMore clouds than sun.13 mph68%30.32 "Hg10 mi
3:15 PM64 °FOvercast.13 mph73%30.31 "Hg10 mi
2:55 PM64 °FMostly cloudy.12 mph73%30.30 "Hg10 mi
2:35 PM66 °FOvercast.15 mph68%30.30 "Hg10 mi
2:15 PM66 °FOvercast.17 mph68%30.30 "Hg10 mi
1:55 PM64 °FOvercast.18 mph73%30.31 "Hg10 mi
1:35 PM66 °FOvercast.18 mph68%30.32 "Hg10 mi
1:15 PM64 °FOvercast.16 mph73%30.32 "Hg10 mi
12:55 PM64 °FBroken clouds.15 mph73%30.33 "Hg10 mi
12:35 PM64 °FBroken clouds.15 mph73%30.34 "Hg10 mi
12:15 PM64 °FMostly cloudy.16 mph73%30.33 "Hg10 mi
11:55 AM64 °FOvercast.18 mph73%30.32 "Hg10 mi
11:35 AM63 °FOvercast.15 mph77%30.33 "Hg10 mi
11:15 AM63 °FMore clouds than sun.13 mph77%30.34 "Hg10 mi
10:55 AM63 °FMostly cloudy.13 mph77%30.35 "Hg10 mi
10:35 AM61 °FMore clouds than sun.12 mph83%30.34 "Hg10 mi
10:15 AM61 °FMore clouds than sun.12 mph83%30.33 "Hg10 mi
9:55 AM61 °FMostly cloudy.10 mph83%30.34 "Hg10 mi
9:35 AM61 °FOvercast.8 mph83%30.33 "Hg10 mi
9:15 AM59 °FMostly cloudy.8 mph88%30.33 "Hg10 mi
8:35 AM57 °FMostly cloudy.7 mph94%30.32 "Hg10 mi
8:15 AM57 °FOvercast.7 mph94%30.30 "Hg10 mi
7:55 AM57 °FMostly cloudy.6 mph94%30.29 "Hg10 mi
7:35 AM57 °FOvercast.8 mph94%30.28 "Hg10 mi
7:15 AM55 °FMostly cloudy.6 mph94%30.28 "Hg10 mi
6:55 AM57 °FMostly cloudy.6 mph88%30.27 "Hg10 mi
6:35 AM57 °FMostly cloudy.3 mph88%30.27 "Hg10 mi
6:15 AM55 °FMostly cloudy.5 mph94%30.26 "Hg10 mi
5:55 AM57 °FOvercast.6 mph88%30.25 "Hg10 mi
5:35 AM57 °FOvercast.7 mph88%30.24 "Hg10 mi
5:15 AM55 °FOvercast.6 mph94%30.24 "Hg10 mi
4:55 AM55 °FOvercast.7 mph94%30.24 "Hg10 mi
4:35 AM57 °FOvercast.7 mph88%30.23 "Hg10 mi
4:15 AM57 °FOvercast.7 mph88%30.23 "Hg10 mi
3:55 AM57 °FOvercast.9 mph88%30.23 "Hg10 mi
3:35 AM55 °FOvercast.8 mph94%30.23 "Hg10 mi
3:15 AM55 °FMostly cloudy.8 mph94%30.22 "Hg10 mi
2:55 AM54 °FMostly cloudy.6 mph94%30.22 "Hg10 mi
2:35 AM54 °FPassing clouds.8 mph94%30.22 "Hg10 mi
2:15 AM54 °FClear.10 mph94%30.21 "Hg10 mi
1:55 AM55 °FClear.10 mph88%30.21 "Hg10 mi
1:35 AM55 °FClear.10 mph88%30.20 "Hg10 mi
1:15 AM54 °FClear.9 mph94%30.21 "Hg10 mi
12:55 AM54 °FClear.7 mph94%30.21 "Hg10 mi
12:35 AM54 °FClear.3 mph94%30.21 "Hg10 mi
12:15 AM54 °FPassing clouds.No wind94%30.20 "Hg10 mi
11:55 PM
Thu, Oct 8
55 °FPassing clouds.3 mph94%30.20 "Hg10 mi
11:35 PM55 °FOvercast.6 mph94%30.21 "Hg10 mi
11:15 PM55 °FOvercast.9 mph94%30.21 "Hg10 mi
10:55 PM55 °FOvercast.13 mph94%30.20 "Hg10 mi
10:35 PM55 °FOvercast.13 mph94%30.20 "Hg10 mi
10:15 PM55 °FPassing clouds.12 mph94%30.20 "Hg10 mi
Weather by CustomWeather, © 2015

See weather overviewHow to use our weather pages